Regional Weather Roundup
Issued by NWS

Home | Current Version | Previous Version | Graphics & Text | Print | Product List | Glossary On
Versions: 1 2 3 4 5 6 7 8 9 10 11 12 13 14 15 16 17 18 19 20 21 22 23 24 25 26 27 28 29 30 31 32 33 34 35 36 37 38 39 40 41 42 43 44 45 46 47 48 49 50
000
ASUS43 KIND 301059
RWRIN

WEATHER ROUNDUP FOR INDIANA
NATIONAL WEATHER SERVICE INDIANAPOLIS IN
700 AM EDT TUE JUN 30 2015

NOTE: "FAIR" INDICATES FEW OR NO CLOUDS BELOW 12,000 FEET WITH NO
SIGNIFICANT WEATHER AND/OR OBSTRUCTIONS TO VISIBILITY.

* - STATION DOES NOT REPORT WEATHER SUCH AS PRECIPITATION OR FOG.

+ - STATION NOT QUALITY CONTROLLED BY THE NATIONAL WEATHER SERVICE.
    USE DATA WITH CAUTION...ESPECIALLY DEWPOINT AND RELATIVE
    HUMIDITY OBSERVATIONS.

INZ001>003-010>013-019-020-301200-
NORTHWEST INDIANA

CITY           SKY/WX    TMP DP  RH WIND       PRES   REMARKS
GARY /AIRPORT/ MOCLDY   N/A N/A N/A W9        29.78R
RENSSELAER +   CLOUDY    63  63 100 SW6       29.80S

$$

LMZ046-743>745-301200-
SOUTHERN LAKE MICHIGAN

STATION/POSITION TIME  TEMP    WIND        PRES    WAVE
                       AIR SEA DIR/SP/G            HT
                 (UTC) (F)     (DEG/KT/KT) (MB)    (FT)
BURNS HARBOR     1000   65     210/  6/  9 1008.8R
MICHIGAN CITY    1000   64     130/  8/ 10   N/A
5NW MICH CITY    1000   64 65  200/  6/  6   N/A     0

$$

INZ004-005-014>016-021>024-301200-
NORTH CENTRAL INDIANA

CITY           SKY/WX    TMP DP  RH WIND       PRES   REMARKS
ELKHART        CLOUDY    63  63 100 CALM      29.80
GOSHEN         MOCLDY    62  60  93 CALM      29.79S FOG
SOUTH BEND     FOG       63  62  97 CALM      29.79S VSB 3/4

$$

INZ006>009-017-018-025>027-301200-
NORTHEAST INDIANA

CITY           SKY/WX    TMP DP  RH WIND       PRES   REMARKS
ANGOLA *+      CLOUDY    61  52  72 CALM      29.81R
FORT WAYNE     MOCLDY    62  60  93 SE3       29.82R FOG

$$

INZ028-029-035-036-043>045-051>053-301200-
WEST CENTRAL INDIANA

CITY           SKY/WX    TMP DP  RH WIND       PRES   REMARKS
CRAWFORDSVL +  PTCLDY    62  60  94 SW6       29.83R
GREENCASTLE +  PTCLDY    61  57  88 CALM      29.84R
LAFAYETTE      CLOUDY    63  61  93 SW5       29.82S
TERRE HAUTE    PTCLDY    65  63  93 CALM      29.84R

$$

INZ030>032-037>040-046>048-054>057-064-065-301200-
CENTRAL INDIANA

CITY           SKY/WX    TMP DP  RH WIND       PRES   REMARKS
COLUMBUS       PTCLDY    64  63  94 S9        29.85
GREENWOOD *+   PTCLDY    64  63  94 CALM      29.84R
INDIANAPOLIS   MOCLDY    65  62  90 SW8       29.82R
-EAGLE CREEK   PTCLDY    64  63  96 SW3       29.82R FOG
KOKOMO *+      MOCLDY    63  61  94 W6        29.81R
MT COMFORT *+  PTCLDY    64 N/A N/A SW6       29.83R
SHELBYVILLE    PTCLDY    66  64  93 S8        29.83R

$$

INZ033-034-041-042-049-050-058-059-301200-
EAST CENTRAL INDIANA

CITY           SKY/WX    TMP DP  RH WIND       PRES   REMARKS
MUNCIE         CLEAR     64  62  93 SW3       29.82R FOG

$$

INZ060-061-067>069-081>083-085>088-301200-
SOUTHWEST INDIANA

CITY           SKY/WX    TMP DP  RH WIND       PRES   REMARKS
EVANSVILLE     PTCLDY    70  63  78 W7        29.86F
HUNTINGBURG *+ PTCLDY    66  63  88 SW7       29.87S

$$

INZ062-063-066-070>080-084-089>092-301200-
SOUTH CENTRAL AND SOUTHEAST INDIANA

CITY           SKY/WX    TMP DP  RH WIND       PRES   REMARKS
BLOOMINGTON    PTCLDY    65  63  93 W7        29.85S
MADISON *+     CLEAR     64  61  88 S3        29.89R
SEYMOUR +      CLEAR     66  64  94 S8        29.85S

$$




USA.gov is the U.S. government's official web portal to all federal, state and local government web resources and services.